Weather history for 0412

Weather History For Prescott AZ

This page updates 5 minutes after midnight. GMT -7

Station: KPRC0 Rows: 26

Return to today's weather
Year Date Temp (°F) Tmin (°F) Tmax (°F) RH% Prcp Snow Wind Gust Pres Sun Cloud
2000 2000-04-12 59.0 39.9 73.9 32 8.9 30.08 0
2001 2001-04-12 45.0 36.0 55.0 48 13.3 29.96 4
2002 2002-04-12 61.9 28 10.4 29.95 0
2003 2003-04-12 56.3 30 13.6 29.91 0
2004 2004-04-12 53.4 30 10.8 29.98 0
2005 2005-04-12 53.6 33.1 71.1 34 0.0 9.3 29.91 0
2006 2006-04-12 57.0 37.9 75.0 32 0.0 16.1 30.06 0
2007 2007-04-12 49.1 39.9 59.0 40 0.0 18.8 29.55 3
2008 2008-04-12 52.7 33.1 71.1 18 0.0 8.3 30.17 0
2009 2009-04-12 49.1 35.1 63.0 64 10.0 30.03 3
2010 2010-04-12 52.0 41.0 61.0 38 20.4 29.75 2
2011 2011-04-12 52.7 39.9 64.9 34 0.0 10.5 29.88 0
2012 2012-04-12 49.1 41.0 57.0 35 0.0 12.7 29.92 2
2013 2013-04-12 55.6 37.0 71.1 28 0.0 7.2 29.77 2
2014 2014-04-12 61.0 48.9 72.0 17 0.0 16.7 29.69 0
2015 2015-04-12 57.7 39.9 73.9 23 0.0 10.6 29.84 0
2016 2016-04-12 50.4 39.0 63.0 72 8.9 8.8 30.03
2017 2017-04-12 58.3 39.0 75.0 26 0.0 11.2 29.92 0
2018 2018-04-12 59.4 46.0 66.0 18 0.0 28.8 29.67 0
2019 2019-04-12 45.1 37.0 52.0 56 11.1 29.68
2020 2020-04-12 49.1 39.9 60.1 68 16.5 29.86
2021 2021-04-12 61.3 48.0 73.0 24 0.0 13.1 29.68 0
2022 2022-04-12 46.4 35.1 53.1 34 0.0 22.9 29.69
2023 2023-04-12 60.8 48.0 73.0 26 0.0 15.9 29.72 0
2024 2024-04-12 59.4 43.0 72.0 28 0.0 15.4 29.84 0
2025 2025-04-12 65.3 51.1 79.0 16 0.0 15.8 29.87 0
Average Low 40.4
Average High 66.7

Daily High / Low by Year (04/12)

Barometric Pressure by Year (04/12)

Weather data provided by Meteostat